Regional Weather Roundup
Issued by NWS San Diego, CA

Home | Current Version | Previous Version | Text Only | Print | Product List | Glossary On
Versions: 1 2 3 4 5 6 7 8 9 10 11 12 13 14 15 16 17 18 19 20 21 22 23 24 25 26 27
000
ASUS46 KSGX 050111
RWRSGX

SAN DIEGO HOURLY WEATHER ROUNDUP
NATIONAL WEATHER SERVICE SAN DIEGO CA
500 PM PST SUN DEC 04 2016

NOTE: "FAIR" INDICATES FEW OR NO CLOUDS BELOW 12,000 FEET WITH NO
SIGNIFICANT WEATHER AND/OR OBSTRUCTIONS TO VISIBILITY.

CAZ042-043-060-061-PZZ750-775-050200-

GREATER SAN DIEGO AREA

CITY           SKY/WX    TMP DP  RH WIND       PRES   REMARKS
SAN DIEGO AP   PTCLDY    62  52  69 NW3       30.00F
NATIONAL CITY    N/A     64  52  65 CALM      30.00S
CHULA VISTA      N/A     63  53  70 CALM      29.92S
IMPERIAL BEACH CLEAR     59  53  80 S5        30.00F
BROWN FIELD    CLEAR     58  50  75 W3        29.99F
MIRAMAR MCAS   PTCLDY    59  39  47 W3        29.98F
MONTGOMERY FLD CLEAR     62  39  42 N3        29.99F

$$

NORTH SAN DIEGO COUNTY

CITY           SKY/WX    TMP DP  RH WIND       PRES   REMARKS
CAMP PENDLETON PTCLDY    61  37  41 CALM      29.98S
OCEANSIDE AP   PTCLDY    60  43  53 W3        29.97F
OCEANSIDE HBR    N/A     60  52  75 CALM      30.00F
VISTA            N/A     64  37  37 CALM      29.97F
CARLSBAD       PTCLDY    62  40  44 CALM      29.98F
LA JOLLA SCRIP   N/A     60  53  77 NW1       29.98F
FALLBROOK        N/A     65  31  29 CALM      29.97S
ESCONDIDO        N/A     65  34  31 CALM      30.00F
SAN MARCOS       N/A     65  41  41 CALM      30.01F
POWAY            N/A     62  35  37 CALM      30.02S

$$

EAST SAN DIEGO COUNTY

CITY           SKY/WX    TMP DP  RH WIND       PRES   REMARKS
RAMONA         PTCLDY    55  28  35 W6        30.00S
SANTEE LAKES     N/A     67  33  28 CALM      29.98S
LA MESA          N/A     64  40  41 CALM      29.93F
JAMUL            N/A     63  36  36 CALM      30.01S
DESCANSO N       N/A     52  28  39 W5        29.94F
CAMPO            N/A     59  21  23 CALM      30.00R

$$

ORANGE COUNTY AND THE LOS ANGELES BASIN

CITY           SKY/WX    TMP DP  RH WIND       PRES   REMARKS
JOHN WAYNE AP  PTCLDY    62  51  67 W3        29.98F
LAGUNA BEACH     N/A     59  49  69 CALM      29.94S
LAKE FOREST FR   N/A     65  40  40 CALM      29.88S
HUNTINGTON BCH   N/A     60  56  86 CALM      30.00S
LOS ALAMITOS   FAIR      60  54  80 S3        29.98S
FULLERTON      MOCLDY    63  42  46 S3        29.97S
LONG BEACH     PTCLDY    62  52  69 CALM      29.98F
L.A. AP        MOCLDY    61  52  72 VRB6      29.99S
L.A. DOWNTOWN  MOCLDY    63  34  33 W3        29.98S

$$

THE INLAND EMPIRE

CITY           SKY/WX    TMP DP  RH WIND       PRES   REMARKS
CORONA         PTCLDY    65  40  39 W6        29.98S
CHINO          PTCLDY    66  34  30 CALM      29.99S
ONTARIO        MOCLDY    65  25  22 W5        29.98S
SAN BERNARDINO PTCLDY    68  25  19 CALM      29.99S
RIVERSIDE AP   PTCLDY    68  31  25 CALM      29.98S
MORENO VALLEY    N/A     67  33  29 CALM      28.11S
MARCH ARB      PTCLDY    59  26  28 W3        29.99S
HORSETHIEF CYN   N/A     63  21  20 NW5       30.03R
PERRIS           N/A     67  29  24 S1        30.02S
HEMET EAST       N/A     67  19  16 CALM      30.05F
FRENCH VALLEY  NOT AVBL
TEMECULA         N/A     68  33  27 CALM      30.02R

$$

SAN BERNARDINO AND RIVERSIDE COUNTY MOUNTAINS

CITY           SKY/WX    TMP DP  RH WIND       PRES   REMARKS
BIG BEAR AP    MOCLDY    45  18  33 CALM      30.15F
PINE COVE        N/A     51  20  29 N3        30.00F

$$

SOUTHERN DESERT INCLUDING THE COACHELLA VALLEY

CITY           SKY/WX    TMP DP  RH WIND       PRES   REMARKS
PALM SPRINGS   PTCLDY    66  26  22 CALM      29.97F
PALM DESERT      N/A     69  30  23 CALM        N/A
THERMAL        CLEAR     58  20  22 CALM      29.93F
BLYTHE         CLEAR     64  21  19 S6        29.96F
IMPERIAL AP    CLEAR     68  26  20 CALM      29.94F
EL CENTRO NAS  CLEAR     65  23  20 S3        29.96F
YUMA AZ        CLEAR     64  19  17 S3        29.95F
MEXICALI       CLEAR     70  12  11 CALM      29.95F

$$

UPPER DESERT

CITY           SKY/WX    TMP DP  RH WIND       PRES   REMARKS
VICTORVILLE AP MOCLDY    59  10  14 CALM      30.01S
HESPERIA         N/A     61  21  21 W3        30.17F
PALMDALE       MOCLDY    65  23  20 W9        30.01S
LANCASTER      MOCLDY    63  22  20 W23G32    30.00F
EDWARDS AFB    MOCLDY    59  13  16 S7        29.96F
DAGGETT        PTCLDY    58  11  15 NE5       29.99S
29 PALMS N     PTCLDY    61  10  13 S3        30.04F
NEEDLES        PTCLDY    63  15  15 NW6       29.97S

$$

REGIONAL REPORTS

CITY           SKY/WX    TMP DP  RH WIND       PRES   REMARKS
SANTA BARBARA  PTCLDY    59  56  89 SE5       29.97S
LAS VEGAS NV   MOCLDY    56  14  19 CALM      30.00F
PHOENIX AZ     PTCLDY    66  13  12 NW7       29.95R
TIJUANA        PTCLDY    61  46  59 NW5       30.02S
ENSENADA NW      N/A     61  32  33 NW7       29.98S

$$

OFFSHORE ISLANDS

CITY           SKY/WX    TMP DP  RH WIND       PRES   REMARKS
CATALINA ARPT  PTCLDY    63  28  26 W6        30.02S
SAN NICOLAS IS PTCLDY    55  55 100 W10       29.99F

$$

MARINE AND OFFSHORE BUOY REPORTS

STATION/POSITION SKY/WX   TEMP    WIND        PRES    SWELL
                          AIR SEA DIR/SP/G            HT/PER/DIR
                          (F)     (DEG/KT/KT) (MB)    (FT/S/D)
TANNER BANKS               60 62  310/ 16/ 19 1016.0F   8/320/16
S CLEMENTE BASIN           60 62  270/  6/  8 1015.4F   5/290/16
SAN NICOLAS IS.               59                N/A     8/300/15
SO. S. ROSA ISLA           58 60  300/ 21/ 25 1015.1F  10/310/16
W. S. BARBARA CH           58 57  320/ 21/ 27 1015.4F  10/300/16
M. S. BARBARA CH                  220/  6/  6 1015.0F
S. MONICA BASIN            60 61  300/  2/  4 1015.0F   3/280/16
S PEDRO CHANNEL               62                N/A     2/260/17
CMP PENDLETON NS              60                N/A     2/240/18
OCEANSIDE OFFSHR              62                N/A     2/230/17
TORREY PINES OTR              63                N/A     2/260/17
POINT LOMA SOUTH              62                N/A     3/280/17

$$





USA.gov is the U.S. government's official web portal to all federal, state and local government web resources and services.